Powrót do katalogu

SL-16 R/B

AktywnyLEO
NORAD 22803·ROCKET BODY·🇷🇺 Russia

Wystrzelony Sep 16, 1993 z Baikonur Cosmodrome

Loading…

Następne Przeloty (najbliższe 24 godziny)

TLE

ŚwieżeSource: Space-Track

Epoka: Sep 14, 2026, 21:57 UTC

1 22803U 93059B   26257.91488436 -.00000175  00000-0 -62804-4 0  9995
2 22803  70.9923 332.0797 0019445 280.5992  79.2942 14.17255980706341

Śledź SL-16 R/B w czasie rzeczywistym z AllMySat

Download on the App Store